Hourly Weather Roundup
Issued by NWS Central Illinois

Home | Current Version | Previous Version | Graphics & Text | Print | Product List | Glossary On
Versions: 1 2 3 4 5 6 7 8 9 10 11 12 13 14 15 16 17 18 19 20 21 22 23 24 25 26 27 28 29 30 31 32 33 34 35 36 37 38 39 40 41 42 43 44 45 46 47 48 49 50
000
NZUS43 KILX 291010
HWRILX

AREA WEATHER ROUNDUP
NATIONAL WEATHER SERVICE, LINCOLN IL
500 AM CDT FRI JUL 29 2016


CITY           SKY/WX    TMP DP  RH WIND       PRES   REMARKS
BLOOMINGTON    PTCLDY    69  67  93 W5        29.92R
CHAMPAIGN      FOG       67  66  97 W5        29.91R VSB 1/4
DANVILLE       FOG       66  66 100 CALM      29.87S VSB 3/4
DECATUR        CLEAR     71  67  87 CALM      29.91R
EFFINGHAM      CLEAR     67  67 100 CALM      29.93R FOG
FLORA          FOG       69  68  98 CALM      29.91R VSB 1/2
GALESBURG      FOG       66  66  98 NW5       29.91F VSB 1/4
JACKSONVILLE   CLEAR     65  64  96 CALM      29.93R
LACON          CLOUDY    67  66  97 CALM      29.89F FOG
LAWRENCEVILLE  CLEAR     68  68 100 S3        29.90S FOG
LITCHFIELD       N/A    N/A N/A N/A MISG        N/A
$$


CITY           SKY/WX    TMP DP  RH WIND       PRES   REMARKS
LINCOLN        CLEAR     68  68  99 CALM      29.91R
MACOMB         PTCLDY    65  65  99 NW3       29.94S
MATTOON        CLEAR     67  65  93 W3        29.90S
MT CARMEL AP   CLEAR     66  65  96 CALM      29.90S FOG
OLNEY-NOBLE AP CLOUDY    66  66 100 CALM      29.91S FOG
PARIS          CLEAR     65  65 100 CALM      29.91S FOG
PEORIA         CLEAR     68  67  96 NW5       29.90S
PONTIAC        LGT RAIN  71  71 100 NE3       29.90S VSB 1/4
RANTOUL        MOCLDY    70  68  94 W3        29.90R FOG
ROBINSON       FOG       68  68 100 CALM      29.91S VSB 1/4
SPRINGFIELD    CLEAR     69  67  93 NW5       29.92R
TAYLORVILLE    CLEAR     67  67 100 MISG      29.92R FOG
$$

...REGIONAL REPORTS...


CITY           SKY/WX    TMP DP  RH WIND       PRES   REMARKS
CHICAGO O`HARE MOCLDY    70  68  93 N3        29.91S
KANKAKEE       CLOUDY    68  67  97 CALM      29.91S FOG
MOLINE         CLOUDY    71  67  87 N3        29.90F
MOUNT STERLING PTCLDY    64  63  98 CALM      29.92S
MOUNT VERNON   CLOUDY    70  64  83 MISG      29.90S
PITTSFIELD     PTCLDY    67  66  95 CALM      29.94R
QUINCY         CLEAR     66  66 100 NW3       29.92S
ROCKFORD       CLOUDY    69  64  84 N8        29.94S
$$


CITY           SKY/WX    TMP DP  RH WIND       PRES   REMARKS
BURLINGTON     PTCLDY    66  66 100 N7        29.92S
CEDAR RAPIDS   CLOUDY    66  66 100 NW8       29.92F
DES MOINES     CLOUDY    67  63  87 N6        29.96F
KIRKSVILLE     CLEAR     65  63  93 N6        29.96R
OTTUMWA        CLEAR     62  60  93 NW9       29.94F
ST LOUIS       PTCLDY    74  69  85 NW3       29.93R
$$


CITY           SKY/WX    TMP DP  RH WIND       PRES   REMARKS
TERRE HAUTE    CLEAR     69  67  93 S5        29.91R
EVANSVILLE     PTCLDY    70  69  97 CALM      29.92R
INDIANAPOLIS   MOCLDY    71  68  90 CALM      29.92R
LAFAYETTE      FOG       69  69 100 CALM      29.89S VSB<1/4
MADISON        LGT RAIN  65  62  90 NE9       29.96S
MILWAUKEE      CLOUDY    68  65  90 NE9       29.94S
$$





USA.gov is the U.S. government's official web portal to all federal, state and local government web resources and services.